Wind_Speed
46 46 46 45 45 45 45 45 45 44 44 44 45 46 47 47 47 47 47 47 48 48 48 49 49 50 50 51 51 52 52 52 53 53 54 54 54 54
44 44 44 44 44 44 44 44 44 45 44 43 44 44 45 46 46 46 46 46 47 48 48 49 49 49 49 50 50 51 51 51 51 52 52 52 52 51
42 42 42 42 42 43 43 43 44 44 44 44 44 44 45 46 46 45 46 46 46 46 47 47 47 47 47 47 48 48 49 50 50 50 49 49 49 48
41 41 41 42 42 42 43 43 44 44 45 44 44 44 45 45 45 45 45 45 44 44 45 44 45 45 46 46 47 47 47 47 48 48 47 47 46 45
42 42 42 42 41 42 42 43 44 44 45 44 44 44 44 44 43 43 43 43 43 43 43 43 43 44 45 45 45 45 45 45 45 44 43 43 42 41
42 41 41 41 41 42 42 42 43 43 42 42 42 42 42 41 42 41 42 42 43 43 43 43 44 44 43 43 43 42 41 41 40 40 39 38 38 38
41 41 41 41 41 41 41 41 41 40 40 40 40 40 40 40 41 41 42 42 43 43 43 44 43 42 42 41 40 39 38 38 37 37 37 36 36 36
40 40 40 41 40 39 39 39 39 39 38 39 39 38 39 40 40 41 42 42 42 42 42 41 41 40 40 39 38 37 37 36 36 35 35 35 35 35
39 39 39 39 39 39 38 38 38 38 38 39 39 39 39 40 40 41 41 41 41 41 40 38 38 37 37 37 37 36 36 36 35 35 35 34 34 33
38 37 38 38 38 38 38 37 37 37 37 37 38 38 38 39 40 39 39 40 40 39 38 37 36 36 36 36 36 36 36 36 35 35 34 33 32 32
35 36 36 37 37 37 37 36 36 36 36 36 36 37 38 38 38 38 38 38 37 36 36 35 35 34 34 34 34 34 34 34 34 34 33 32 31 30
33 34 34 35 35 35 35 34 34 35 35 36 36 36 36 36 37 37 36 36 35 33 33 33 32 32 31 32 33 33 33 32 32 32 31 30 29 29
32 32 32 33 33 33 33 33 33 33 34 34 34 34 34 35 35 35 34 33 32 31 31 30 29 29 29 30 31 31 30 30 30 30 29 29 28 28
32 31 31 31 31 31 31 31 32 32 32 32 32 32 32 33 33 31 30 30 29 28 28 27 27 28 28 29 29 28 28 28 28 27 27 27 27 26
30 31 31 31 30 29 29 29 30 29 29 29 29 29 30 30 29 28 27 27 27 26 26 26 27 27 27 27 27 26 26 26 26 25 25 25 25 25
29 29 29 29 28 28 27 27 27 27 27 27 27 27 28 27 26 25 24 24 24 24 25 25 25 25 25 25 25 25 24 24 24 23 23 23 23 23
27 27 26 26 26 25 25 25 25 25 26 26 26 25 25 24 24 23 23 23 23 23 24 24 24 24 24 24 24 23 22 22 22 22 21 21 21 20
25 25 25 24 24 23 23 23 23 24 24 23 23 23 23 23 22 21 22 22 22 22 22 22 21 22 22 22 22 21 21 20 21 20 20 19 18 18
23 22 22 22 21 21 22 22 23 23 22 22 22 22 22 21 20 20 21 21 21 21 21 20 20 20 20 20 20 20 19 19 19 18 18 17 16 15
21 21 21 20 19 20 20 21 21 21 21 20 20 20 20 20 19 19 20 20 20 19 19 19 19 19 19 19 18 18 18 17 17 16 15 14 13 13
19 18 18 18 18 18 19 19 19 19 18 18 18 18 18 18 18 19 19 18 18 17 17 18 18 18 17 17 16 16 16 16 15 14 13 12 12 11
17 17 16 16 16 16 17 17 16 16 15 15 15 16 17 17 17 17 17 17 16 15 15 15 15 15 15 15 14 14 14 14 13 12 11 11 10 9
16 16 16 15 14 14 14 14 14 13 13 14 14 15 16 16 16 15 15 15 14 13 14 14 13 13 13 13 12 12 12 12 12 11 10 10 9 8
Wind_Direction
273 274 275 276 277 277 278 278 279 279 279 280 281 281 282 283 284 285 285 285 286 286 286 287 286 287 285 284 283 282 280 280 279 278 278 277 277 276
271 273 275 276 277 277 278 278 279 279 280 280 280 281 283 285 286 286 286 287 287 287 287 288 287 287 287 286 284 283 282 281 281 280 279 278 277 277
271 273 274 276 277 278 278 279 279 279 280 281 281 281 283 285 285 286 287 288 288 288 288 288 288 288 287 287 286 285 284 283 283 282 280 278 278 277
271 273 274 275 277 279 279 279 280 280 281 281 282 283 284 285 286 287 287 288 288 289 289 289 289 289 288 288 287 287 286 286 284 283 281 280 279 277
272 273 274 276 277 279 280 281 282 282 282 282 283 284 285 285 286 286 287 288 289 290 290 290 291 291 291 290 289 288 288 287 285 285 283 282 280 277
273 274 274 277 279 280 281 281 282 283 283 283 284 286 287 287 287 286 287 288 289 290 290 291 292 293 292 291 290 289 289 288 287 286 285 283 282 280
273 274 275 277 279 281 281 281 281 282 283 284 285 286 287 288 288 287 288 289 290 291 291 291 292 292 292 292 291 290 290 289 288 287 285 284 283 281
273 274 276 276 278 279 280 281 281 282 283 284 285 287 288 288 289 289 289 289 290 290 291 292 292 292 291 291 291 291 291 291 290 288 286 285 284 281
274 275 275 276 277 278 280 281 281 282 284 284 285 287 288 289 289 289 289 290 291 291 291 292 292 292 291 291 292 292 293 292 290 289 288 287 285 282
276 276 276 278 279 279 279 280 281 283 284 285 286 287 288 290 290 290 290 291 291 291 292 292 291 291 291 292 291 292 292 291 290 289 288 287 285 283
276 276 277 279 281 280 280 280 281 282 283 285 286 288 289 291 292 291 291 292 292 291 292 292 291 291 292 292 293 293 293 292 291 290 289 288 286 283
277 277 279 280 280 281 281 280 281 283 284 285 287 289 290 291 292 292 292 293 293 292 293 292 292 292 291 292 294 294 294 293 291 290 289 288 286 284
278 279 279 280 281 281 279 279 281 283 285 286 288 290 291 293 294 294 293 293 293 293 293 293 294 294 294 295 296 296 295 294 293 291 289 287 286 285
278 279 280 280 280 280 279 280 282 285 287 288 291 292 293 295 297 296 294 293 294 294 295 296 297 297 298 299 299 299 298 296 295 293 290 289 288 287
279 279 279 280 280 280 280 282 284 286 287 290 292 293 295 297 297 296 294 295 295 296 298 299 299 300 301 302 302 301 300 298 297 295 293 291 290 287
279 279 279 279 280 280 281 283 285 286 288 291 293 295 297 297 296 295 295 297 299 300 300 301 301 301 302 303 304 303 302 301 300 297 296 295 292 289
279 279 278 279 280 280 281 283 284 286 289 292 294 297 299 299 296 295 296 298 300 300 301 302 302 303 303 304 304 304 304 304 303 301 299 296 293 290
279 278 278 279 280 280 280 282 284 286 290 293 295 298 300 300 296 295 297 299 301 302 303 304 304 305 307 307 306 305 305 306 306 304 302 299 295 292
280 280 280 280 280 279 280 281 284 286 289 292 294 298 300 299 297 296 297 299 301 302 303 305 306 307 309 310 310 309 309 310 309 309 307 303 299 297
282 282 282 281 279 279 280 283 284 286 290 292 295 298 300 300 299 300 300 300 300 301 303 306 307 309 310 314 315 315 313 313 314 314 312 309 307 304
284 285 283 281 280 281 283 284 286 288 290 293 296 298 300 301 302 304 305 305 303 303 303 306 310 313 316 319 320 319 319 319 320 320 318 317 316 312
283 283 283 283 282 284 286 286 287 288 291 295 297 300 302 304 305 307 308 307 305 305 307 310 316 320 322 324 324 326 327 328 330 329 327 325 324 320
280 281 281 281 282 284 285 286 287 288 292 297 300 303 305 307 309 310 312 311 309 308 310 313 318 323 327 330 334 337 339 340 343 343 339 336 335 333
Height
5646 5646 5645 5645 5644 5643 5642 5641 5641 5641 5640 5637 5634 5631 5629 5628 5625 5623 5621 5619 5616 5614 5611 5609 5606 5603 5600 5598 5596 5593 5591 5590 5588 5586 5585 5584 5582 5581
5635 5635 5634 5633 5632 5631 5630 5629 5628 5628 5627 5626 5623 5620 5618 5616 5613 5611 5609 5607 5604 5601 5598 5595 5593 5590 5587 5584 5581 5579 5577 5575 5573 5571 5570 5568 5567 5566
5624 5623 5623 5622 5621 5620 5619 5618 5617 5615 5614 5613 5611 5608 5606 5604 5602 5599 5597 5594 5592 5588 5585 5583 5580 5577 5574 5571 5568 5565 5563 5560 5558 5556 5554 5553 5552 5551
5613 5612 5612 5611 5610 5608 5607 5606 5605 5603 5602 5601 5599 5597 5594 5592 5590 5588 5585 5582 5580 5577 5573 5570 5567 5565 5562 5559 5556 5552 5549 5546 5544 5542 5540 5539 5538 5536
5601 5601 5600 5600 5599 5597 5596 5594 5593 5591 5590 5589 5587 5585 5583 5580 5578 5576 5574 5571 5568 5565 5562 5559 5556 5553 5549 5546 5543 5540 5537 5534 5531 5529 5527 5525 5524 5523
5590 5590 5589 5588 5588 5586 5585 5583 5582 5580 5578 5577 5576 5574 5572 5569 5567 5565 5563 5560 5557 5554 5551 5547 5545 5541 5538 5535 5532 5528 5525 5522 5520 5517 5515 5514 5513 5511
5579 5579 5578 5577 5576 5575 5574 5572 5570 5569 5567 5566 5565 5563 5561 5559 5556 5554 5552 5549 5546 5543 5540 5536 5533 5530 5526 5523 5520 5517 5514 5512 5509 5507 5505 5503 5502 5500
5568 5568 5567 5566 5565 5564 5562 5561 5560 5558 5557 5556 5554 5553 5550 5548 5546 5543 5540 5539 5536 5533 5529 5526 5522 5519 5516 5513 5510 5507 5504 5502 5499 5497 5494 5492 5491 5490
5558 5557 5556 5555 5554 5553 5552 5550 5549 5547 5547 5545 5544 5542 5540 5538 5535 5533 5529 5527 5524 5521 5518 5515 5511 5509 5506 5503 5500 5497 5494 5492 5489 5487 5485 5483 5481 5479
5547 5547 5546 5545 5544 5542 5541 5540 5539 5538 5536 5535 5534 5531 5529 5526 5524 5521 5518 5516 5513 5510 5507 5505 5502 5499 5496 5493 5490 5487 5485 5482 5479 5477 5475 5473 5471 5470
5537 5536 5536 5535 5533 5532 5531 5530 5529 5528 5525 5524 5522 5520 5518 5516 5513 5511 5508 5505 5503 5500 5497 5495 5492 5490 5487 5484 5481 5478 5475 5473 5470 5467 5465 5463 5462 5461
5528 5527 5526 5524 5523 5521 5520 5520 5519 5518 5516 5514 5512 5510 5508 5505 5502 5500 5498 5495 5493 5491 5488 5486 5483 5481 5479 5476 5473 5469 5466 5464 5461 5458 5456 5454 5453 5452
5518 5517 5516 5514 5513 5511 5510 5510 5509 5508 5506 5504 5502 5500 5498 5495 5493 5490 5488 5486 5484 5482 5480 5477 5475 5472 5470 5468 5465 5461 5458 5455 5452 5450 5447 5446 5444 5443
5509 5508 5506 5505 5503 5502 5501 5501 5500 5498 5497 5495 5494 5492 5489 5487 5484 5482 5479 5477 5476 5474 5471 5469 5467 5464 5462 5459 5457 5454 5450 5447 5444 5442 5440 5438 5436 5435
5499 5498 5497 5496 5494 5494 5493 5492 5491 5490 5489 5487 5485 5483 5481 5479 5477 5474 5472 5470 5468 5466 5464 5461 5459 5457 5454 5452 5449 5446 5443 5440 5437 5434 5432 5430 5429 5428
5490 5489 5488 5487 5486 5485 5485 5484 5483 5482 5481 5480 5478 5476 5473 5471 5469 5467 5466 5464 5462 5459 5457 5455 5452 5450 5448 5445 5442 5439 5435 5433 5430 5428 5426 5424 5422 5420
5480 5480 5479 5479 5478 5478 5477 5477 5476 5475 5474 5472 5470 5469 5466 5464 5462 5461 5459 5457 5456 5454 5451 5449 5446 5444 5441 5438 5436 5432 5429 5426 5424 5422 5419 5417 5415 5414
5472 5472 5471 5471 5471 5470 5470 5470 5469 5468 5467 5466 5464 5462 5460 5458 5457 5455 5453 5452 5450 5448 5446 5443 5441 5439 5436 5433 5430 5427 5424 5421 5419 5416 5413 5412 5410 5408
5465 5465 5464 5464 5464 5463 5463 5463 5463 5462 5461 5460 5458 5456 5454 5453 5451 5450 5448 5446 5445 5443 5441 5438 5436 5434 5431 5429 5425 5422 5419 5416 5414 5411 5409 5407 5405 5404
5459 5458 5458 5458 5457 5457 5457 5457 5457 5456 5455 5454 5452 5451 5449 5448 5446 5444 5443 5441 5439 5438 5436 5433 5431 5429 5426 5424 5421 5418 5414 5412 5409 5407 5405 5403 5401 5400
5453 5453 5452 5452 5452 5452 5452 5451 5451 5450 5449 5449 5447 5446 5445 5443 5441 5440 5438 5436 5434 5433 5431 5429 5427 5424 5422 5419 5417 5414 5411 5408 5406 5404 5402 5400 5399 5398
5448 5447 5447 5447 5447 5447 5446 5446 5446 5445 5445 5444 5443 5442 5441 5439 5437 5436 5434 5432 5430 5428 5427 5425 5423 5420 5418 5416 5414 5411 5409 5406 5403 5401 5399 5398 5396 5395
5442 5442 5442 5442 5442 5442 5442 5442 5441 5441 5441 5440 5439 5438 5437 5435 5434 5432 5430 5428 5426 5425 5423 5421 5419 5418 5416 5414 5411 5409 5407 5405 5402 5400 5398 5396 5394 5393